(162082) 1998 HL1
ephemeris date magn radius delta ra dec elong phase
Today21 Oct 202522.61.416 AU2.080 AU11h12m-08°27'36.9°25.0°
(162082) 1998 HL1 - 2025-10-21
astro.vanbuitenen.nl


 
-1 year
-1 month
-1 day
Now
+1 day
+1 month
+1 year

The interactive orbit chart above shows the body's path through the solar system and its position at the given date. Green and blue lines are shown perpendicular to the ecliptic plane: Green if the path is above the ecliptic plane, blue if it is below. (Left-click and drag to rotate the view; Right-click and drag to move the view; Use scroll wheel to zoom in our out.)

The orbital elements of 1998 HL1 are:

            e (Eccentricity)                : 0.1869775
            a (Semimajor axis)              : 1.2462887
            i (Inclination)                 : 20.05324
            Ω (Longitude of ascending node) : 213.52967
            ω (Argument of perihelion)      : 148.66460
            M (Mean anomaly)                : 9.88540
            Epoch                           : 2025 May 05

            L (Longitude of perihelion)     : 183.76254
            B (Latitude of perihelion)      : 10.27195
            P (Orbital period in years)     : 1.39            
        

The light curve chart below shows the estimated development of the minor planet's magnitude.


The all-sky chart below shows the path of the minor planet over the same period as the light curve. The current position is marked yellow.





The following chart shows the path of the minor planet in the next few days. The field of view is optimized for (~10x50) binoculars and finderscopes.




Ephemerides:
Date       Time       RA (2000)    DEC (2000)    delta   radius  elong  phase   PA    magn
2025-10-21 00:00 UT   11 12 34.8   -08 27 18     2.080    1.416   36.9   25.0   276   22.6 
2025-10-21 02:21 UT   11 12 50.0   -08 28 49     2.080    1.417   36.9   25.0   276   22.6 
2025-10-22 00:00 UT   11 15 09.5   -08 42 48     2.077    1.418   37.2   25.1   277   22.6 
2025-10-23 00:00 UT   11 17 44.1   -08 58 14     2.075    1.420   37.4   25.2   277   22.6 
2025-10-24 00:00 UT   11 20 18.5   -09 13 38     2.072    1.422   37.7   25.3   277   22.6 
2025-10-25 00:00 UT   11 22 52.7   -09 28 59     2.069    1.423   38.0   25.5   277   22.6 
2025-10-26 00:00 UT   11 25 26.8   -09 44 16     2.066    1.425   38.3   25.6   278   22.6 
2025-10-27 00:00 UT   11 28 00.8   -09 59 31     2.063    1.426   38.5   25.7   278   22.6 
2025-10-28 00:00 UT   11 30 34.7   -10 14 42     2.059    1.428   38.8   25.9   278   22.6 
2025-10-29 00:00 UT   11 33 08.4   -10 29 49     2.056    1.430   39.1   26.0   278   22.6 
2025-10-30 00:00 UT   11 35 42.0   -10 44 53     2.053    1.431   39.4   26.1   279   22.6 
2025-10-31 00:00 UT   11 38 15.6   -10 59 53     2.049    1.433   39.7   26.2   279   22.6 
2025-11-01 00:00 UT   11 40 49.0   -11 14 50     2.046    1.434   39.9   26.4   279   22.7 
2025-11-02 00:00 UT   11 43 22.4   -11 29 42     2.042    1.436   40.2   26.5   279   22.7 


    Terminology:
            
    delta:  distance between minor planet and earth in AU
    radius: distance between minor planet and sun in AU
    magn:   magnitude (brightness) estimate    
    ra:     right ascension in hours (24h = 360deg)
    dec:    declination in degrees
    elong:  elongation in degrees (angle sun-earth-minor planet)    
    phase:  phase angle in degrees (angle sun-minor planet-earth)        
    AU:     Astronomical Unit (mean distance between earth and sun: 149597870.7 km
    

Orbital elements provided by the MPC (Minor Planet Center).
Calculations by a modified version of AAPlus, a C# implementation of the AA+ project by PJ Naughter from the algorithms presented in the book "Astronomical Algorithms" by Jean Meeus.
NGC2000 dso catalog and star labels from VizieR as provided by the Strasbourg astronomical Data Center.
Tycho2 catalog from the ESO archive.